Regional Weather Roundup
Issued by NWS

Home | Current Version | Previous Version | Graphics & Text | Print | Product List | Glossary On
Versions: 1 2 3 4 5 6 7 8 9 10 11 12 13 14 15 16 17 18 19 20 21 22 23 24 25 26 27 28 29 30 31 32 33 34 35 36 37 38 39 40 41 42 43 44 45 46 47 48 49 50
000
ASUS43 KOAX 301910
RWRNE

WEATHER ROUNDUP FOR NEBRASKA
NATIONAL WEATHER SERVICE OMAHA NE
100 PM CST FRI JAN 30 2015

NOTES: SATELLITE DATA IS BEING USED TO AUGMENT CLOUD COVER ABOVE
       12000 FEET.
       "FAIR" INDICATES FEW OR NO CLOUDS BELOW 12,000 FEET WITH NO
       SIGNIFICANT WEATHER AND/OR OBSTRUCTIONS TO VISIBILITY.

  * THESE STATIONS DO NOT REPORT WEATHER SUCH AS RAIN...SNOW OR FOG.

NEZ001>004-019>022-054>056-302000-
NEBRASKA PANHANDLE

CITY           SKY/WX    TMP DP  RH WIND       PRES   REMARKS
SCOTTSBLUFF    CLOUDY    39  27  62 W6        30.16F WCI  35
ALLIANCE       PTSUNNY   47  24  40 CALM      30.14F
CHADRON        MOSUNNY   46  26  45 VRB6      30.16F
KIMBALL        CLOUDY    43  29  58 N3        30.12F
SIDNEY         PTSUNNY   43  27  53 S9        30.15F
$$

NEZ057>060-069>072-079>082-302000-
SOUTHWEST NEBRASKA

CITY           SKY/WX    TMP DP  RH WIND       PRES   REMARKS
NORTH PLATTE   PTSUNNY   45  26  47 S16G23    30.22F
IMPERIAL       PTSUNNY   47  27  45 S16G24    30.20F
LEXINGTON      CLOUDY    44  27  51 S17       30.28F
MCCOOK         CLOUDY    46  26  45 S17       30.26F
OGALLALA       PTSUNNY   47  30  51 S14G22    30.18F
$$

NEZ005>010-023>029-035>040-094-302000-
NORTH CENTRAL NEBRASKA

CITY           SKY/WX    TMP DP  RH WIND       PRES   REMARKS
VALENTINE      PTSUNNY   48  24  39 SW20G28   30.16F
AINSWORTH      PTSUNNY   45  26  47 S18       30.18F
BROKEN BOW     PTSUNNY   44  26  49 S16G24    30.27F
O`NEILL        PTSUNNY   41  28  58 S18       30.25F
ORD            PTSUNNY   39  26  59 S15       30.30F WCI  31
THEDFORD       PTSUNNY   49  26  40 S17       30.20F
$$

NEZ041-046>049-061>064-073>077-083>087-302000-
SOUTH CENTRAL NEBRASKA

CITY           SKY/WX    TMP DP  RH WIND       PRES   REMARKS
GRAND ISLAND   PTSUNNY   41  26  55 S13       30.36F
AURORA         PTSUNNY   40  26  58 S12       30.37F WCI  33
HASTINGS       CLOUDY    42  25  50 S13G21    30.34F
HEBRON         PTSUNNY   40  25  54 S9G18     30.41F WCI  34
HOLDREGE       CLOUDY    41  25  53 S17       30.31F
KEARNEY *      PTSUNNY   43  25  49 S21       30.32F
YORK           PTSUNNY   39  27  60 S15       30.38F WCI  31
$$

NEZ011>018-030>034-042>045-302000-
NORTHEAST NEBRASKA

CITY           SKY/WX    TMP DP  RH WIND       PRES   REMARKS
NORFOLK        MOSUNNY   39  27  62 S14       30.34F WCI  31
ALBION         MOSUNNY   39  26  59 S15       30.32F WCI  31
BLAIR          SUNNY     34  22  63 S9        30.42F WCI  26
COLUMBUS *     MOSUNNY   39  25  56 S14G20    30.38F WCI  31
FREMONT        MOSUNNY   37  26  63 S12       30.42F WCI  29
TEKAMAH        MOSUNNY   35  23  61 S13       30.43F WCI  26
WAYNE          MOSUNNY   38  27  65 S18       30.36F WCI  28
$$

NEZ050>053-065>068-078-088>093-302000-
SOUTHEAST NEBRASKA

CITY           SKY/WX    TMP DP  RH WIND       PRES   REMARKS
LINCOLN        MOSUNNY   37  25  61 S10       30.43F WCI  30
OMAHA EPPLEY   CLOUDY    32  20  61 S10       30.46F WCI  24
BEATRICE       PTSUNNY   36  25  63 S10       30.43F WCI  29
FALLS CITY     PTSUNNY   34  23  64 S7        30.48F WCI  28
NEBRASKA CITY  MOSUNNY   32  21  63 S8        30.46F WCI  25
PLATTSMOUTH    SUNNY     35  21  57 S8        30.45F WCI  28
$$

NEZ044-045-051>053-067-302000-
OMAHA AREA

CITY           SKY/WX    TMP DP  RH WIND       PRES   REMARKS
OMAHA EPPLEY   CLOUDY    32  20  61 S10       30.46F WCI  24
BLAIR          SUNNY     34  22  63 S9        30.42F WCI  26
FREMONT        MOSUNNY   37  26  63 S12       30.42F WCI  29
MILLARD        MOSUNNY   34  23  64 S8        30.45F WCI  27
OFFUTT AFB     SUNNY     34  21  59 S7        30.45F WCI  28
PLATTSMOUTH    SUNNY     35  21  57 S8        30.45F WCI  28
WAHOO          FAIR      38  23  55 S14       30.41F WCI  30
$$


USA.gov is the U.S. government's official web portal to all federal, state and local government web resources and services.